User: anonymous   Login
Location: Unspecified
(0.0000°N, 0.0000°E)
Time: 20:01:10
(UTC+00:00)
Language:

APRIZESAT 5 - Orbit

View from above orbital plane
View from above orbital plane
View from above satellite
View from above satellite

Ground track
Ground track

The orbit data is extracted from the following two-line orbital elements,

1 37792U 11044E   23084.23487691  .00002334  00000-0  33568-3 0  9995
2 37792  98.2878 332.3739 0056868 187.4515 172.5854 14.76332890624553
Epoch (UTC): 25 March 2023 05:38:13
Eccentricity: 0.0056868
inclination: 98.2878°
perigee height: 601 km
apogee height: 681 km
right ascension of ascending node: 332.3739°
argument of perigee: 187.4515°
revolutions per day: 14.76332890
mean anomaly at epoch: 172.5854°
orbit number at epoch: 62455

The dashed part of the orbit path shows where the satellite is in the earth's shadow,  

DLR